Home   Weather   Trier   Past weeks

Flag for Germany Past Weather in Trier, Rhineland-Palatinate, Germany — Yesterday and Last 2 Weeks

Now
55 °F

Light rain. Passing clouds.


Feels Like: 53 °F
Forecast: 47 / 59 °F
Wind: 9 mph from Southwest

Location: Spangdahlem

Current Time: Oct 20, 2017 at 5:53:39 am

Latest Report: Oct 20, 2017 at 5:36 am


Visibility: N/A

Pressure: 29.80 "Hg

Humidity: 77%

Dew Point: 48 °F

Location of TrierLocation

Past Weather in Trier — Graph

°F

Trier Temperature Yesterday

Maximum temperature yesterday: 66 °F (at 4:56 pm)
Minimum temperature yesterday: 43 °F (at 7:06 am)
Average temperature yesterday: 54 °F

High & Low Weather Summary for the Past Weeks

 TemperatureHumidityPressure
High70 °F (Oct 16, 2:58 pm)100% (Oct 5, 11:58 am)30.37 "Hg (Oct 5, 11:58 am)
Low41 °F (Oct 5, 11:58 pm)57% (Oct 16, 3:58 pm)29.81 "Hg (Oct 20, 3:56 am)
Average53 °F88%30.11 "Hg
* Reported Oct 5 3:03 am — Oct 20 3:56 am, Trier. Weather by CustomWeather, © 2017

Note: Actual official high and low records may vary slightly from our data, if they occured in-between our weather recording intervals... More about our weather records

Advertising

Trier Weather History for the Previous 24 Hours

Scroll right to see more
 ConditionsComfort  
Time TempWeatherWind HumidityBarometerVisibility
3:56 am
Fri, Oct 20
55 °FPartly cloudy.5 mph68%29.81 "HgN/A
2:56 am55 °FOvercast.No wind69%29.82 "HgN/A
1:56 am55 °FPassing clouds.No wind69%29.82 "HgN/A
12:56 am55 °FClear.No wind67%29.82 "HgN/A
11:56 pm
Thu, Oct 19
57 °FClear.5 mph64%29.82 "HgN/A
10:56 pm57 °FClear.5 mph66%29.84 "HgN/A
9:56 pm57 °FClear.5 mph67%29.84 "HgN/A
8:56 pm60 °FClear.3 mph77%29.84 "HgN/A
7:56 pm58 °FPassing clouds.5 mph82%29.85 "HgN/A
6:56 pm61 °FClear.5 mph76%29.83 "HgN/A
5:56 pm65 °FSunny.No wind68%29.84 "HgN/A
4:56 pm66 °FSunny.5 mph64%29.83 "HgN/A
3:56 pm66 °FSunny.6 mph65%29.84 "HgN/A
2:56 pm65 °FSunny.8 mph66%29.84 "HgN/A
1:56 pm64 °FSunny.8 mph65%29.86 "HgN/A
12:56 pm62 °FPassing clouds.7 mph70%29.88 "HgN/A
11:56 am56 °FSunny.No wind80%29.90 "HgN/A
10:56 am53 °FPassing clouds.3 mph85%29.90 "HgN/A
9:56 am50 °FSunny.No wind88%29.90 "HgN/A
8:56 am47 °FSunny.No wind95%29.88 "HgN/A
7:56 am44 °FFog.No wind96%29.88 "Hg6 mi
7:31 am43 °FClear.No wind93%29.90 "HgN/A
7:06 am43 °FClear.5 mph93%29.88 "Hg5 mi
5:56 am45 °FClear.3 mph96%29.88 "HgN/A
Weather by CustomWeather, © 2017

See weather overview